Location: Albany
(37.8869°N, 122.2977°W)
Time: 07:43:17
(UTC+00:00)

Daily predictions for brighter satellites

Satellite Brightness Start Highest point End
(mag) Time Altitude Azimuth Time Altitude Azimuth Time Altitude Azimuth
ATLAS 2AS CENTAUR R/B 3.5 12:32:35 47° NNW 12:32:35 47° NNW 12:38:45 10° NNE
Lacrosse 5 3.7 12:35:13 24° NNE 12:35:13 24° NNE 12:37:15 10° NE
Cosmos 2360 Rocket 3.7 12:31:37 10° SSE 12:36:41 34° ESE 12:41:45 10° NE
SL-16 R/B 3.0 12:40:00 43° NNE 12:40:00 43° NNE 12:43:44 10° NNE
COSMO-SKYMED 1 4.2 12:48:04 10° SE 12:51:55 32° ENE 12:54:56 15° NNE
SL-8 Rocket 4.1 12:51:41 10° N 12:57:51 71° E 13:03:58 10° SSE
Timation 1 Rocket 4.2 12:58:47 73° SW 12:58:47 73° SW 13:04:34 10° SSE
Meteor 1-16 Rocket 4.3 13:03:41 59° NNW 13:03:41 59° NNW 13:08:36 10° N
Orbus 7S? 4.0 13:07:27 54° NNE 13:07:58 58° NE 13:14:55 10° SE
ALOS 2.9 13:05:17 10° NNE 13:09:52 55° E 13:14:26 10° S
Cosmos 2181 Rocket 3.8 13:03:47 10° SSW 13:10:00 75° W 13:16:22 10° N
STARLINK 1064 4.5 13:14:59 40° NNE 13:14:59 40° NNE 13:17:54 10° NE
RESURS DK-1 3.9 13:16:52 25° N 13:16:52 25° N 13:18:45 10° NNE
Cosmos 2056 Rocket 3.7 13:14:10 22° NNW 13:17:48 76° ENE 13:23:10 10° SSE
STARLINK 1041 4.4 13:19:46 41° N 13:19:46 41° N 13:22:52 10° NE
CZ-3A R/B 4.4 13:15:41 22° SW 13:20:58 39° S 13:54:09 10° ESE
STARLINK 1038 4.3 13:24:33 41° N 13:24:33 41° N 13:27:48 10° NE
ATLAS 3B R/B 2.6 13:23:03 31° NW 13:26:35 72° WSW 13:33:32 10° SSE
Cosmos 2341 Rocket 4.1 13:24:49 26° NNW 13:27:54 46° W 13:33:45 10° SSW
STARLINK 1046 4.3 13:29:21 40° NNW 13:29:21 40° NNW 13:32:46 10° NE
CZ-3 R/B 3.5 13:19:34 26° W 13:31:24 49° SSW 13:38:34 10° SE
Cosmos 864 Rocket 4.4 13:26:49 10° N 13:33:04 81° W 13:39:21 10° S
STARLINK 1039 4.3 13:34:07 38° NNW 13:34:07 38° NNW 13:37:43 10° NE
Cosmos 2322 Rocket 2.7 13:37:10 35° WNW 13:37:25 35° WNW 13:42:39 10° N
PAYLOAD B 4.4 13:32:05 10° NNE 13:37:43 75° ESE 13:43:17 10° S
Cosmos 2263 Rocket 2.7 13:37:52 34° W 13:38:07 35° WSW 13:43:12 10° SSW
STARLINK 1045 4.3 13:38:55 36° NNW 13:38:55 36° NNW 13:42:40 10° NE
SKYMED 2 3.4 13:35:32 10° S 13:39:50 70° WSW 13:43:32 14° NNW
CENTAUR R/B 3.5 13:38:04 26° WNW 13:42:28 44° WSW 13:50:34 10° S
Cosmos 1812 Rocket 4.3 13:38:22 10° S 13:42:38 54° E 13:46:57 10° NNE
Cosmos 1340 Rocket 3.8 13:39:45 10° SSE 13:43:29 46° E 13:47:15 10° NNE
Cosmos 1300 2.7 13:39:56 10° S 13:43:43 80° E 13:47:33 10° N
STARLINK 1050 4.4 13:43:50 32° NW 13:43:53 32° NNW 13:47:40 10° NNE
USA 215 4.4 13:38:09 10° E 13:43:57 35° NNE 13:49:45 10° NNW
Cosmos 2218 Rocket 4.1 13:41:11 10° NNW 13:47:21 55° W 13:53:26 10° SSW
Cosmos 1844 Rocket 3.3 13:42:49 10° NNW 13:48:23 56° ENE 13:53:54 10° SE
Lacrosse 5 rocket 3.9 13:46:11 10° N 13:49:04 16° NNE 13:51:53 10° ENE
SL-08 R/B 4.5 13:47:55 10° N 13:54:23 77° W 14:00:43 10° S
CZ-4B DEB 4.1 13:50:18 10° N 13:55:47 65° WNW 14:01:12 10° SSW
Meteor 1-11 4.4 13:53:13 10° NNW 13:58:36 47° W 14:04:00 10° SSW
H-2A R/B 4.2 13:55:35 10° NNE 13:59:15 40° E 14:02:51 10° S
Cosmos 1452 Rocket 4.0 13:54:26 10° NNW 13:59:40 63° ENE 14:04:51 10° SSE
Cosmos 1900 4.4 13:56:33 20° NW 13:59:52 57° WSW 14:04:41 10° SSE
Cosmos 1461 4.3 13:57:43 10° S 14:01:19 37° ESE 14:05:00 10° NE
SMAP 4.5 13:59:21 10° NNE 14:03:46 42° E 14:08:09 10° S
Cosmos 2333 Rocket 2.6 14:00:01 10° SSW 14:05:44 69° ESE 14:11:28 10° NNE
FENGYUN 3A 3.9 14:00:50 10° N 14:05:57 45° WNW 14:11:04 10° SW
FALCON 9 DEB 3.8 14:07:28 25° W 14:08:52 37° SW 14:12:08 10° SSE
Cosmos 1076 Rocket 3.8 14:05:17 10° N 14:09:40 71° E 14:13:59 10° SSE
Cosmos 2366 rocket 4.5 14:05:40 10° NNW 14:11:25 37° W 14:17:08 10° SSW
Lacrosse 5 3.6 14:14:26 13° NW 14:16:07 15° NNW 14:19:06 10° N
Cosmos 2360 Rocket 2.9 14:15:39 10° WSW 14:20:38 31° WNW 14:25:39 10° N
Cosmos 2219 Rocket 2.2 14:16:23 10° SSW 14:22:02 89° WNW 14:27:46 10° NNE
Cosmos 1420 Rocket 4.1 14:17:35 10° NNW 14:22:48 57° WSW 14:27:59 10° S
SL-16 R/B 3.8 14:21:56 13° WNW 14:22:54 14° NW 14:25:45 10° NNW
ATLAS 2AS CENTAUR R/B 4.5 14:20:03 12° WNW 14:23:47 17° NNW 14:28:34 10° N
Cosmos 2058 2.9 14:20:08 10° N 14:24:22 90° WSW 14:28:33 10° S
Cosmos 1892 3.5 14:21:08 10° N 14:24:53 54° E 14:28:34 10° SSE
Okean O Rocket 1.9 14:21:11 10° N 14:25:23 43° WNW 14:29:32 10° SW
Cosmos 2084 Rocket 3.8 14:23:37 10° SW 14:27:47 45° NW 14:32:02 10° NNE
COSMO-SKYMED 1 3.9 14:24:57 10° SW 14:28:06 20° W 14:31:17 10° NW
NOAA 6 4.4 14:24:28 10° N 14:29:22 44° WNW 14:34:16 10° SW
Cosmos 2333 4.4 14:24:15 10° SW 14:29:52 53° WNW 14:35:31 10° NNE
Cosmos 2322 4.0 14:25:33 10° SW 14:30:56 45° WNW 14:36:21 10° N
Okean-O 4.0 14:34:57 10° NNE 14:39:12 44° E 14:43:26 10° S
CZ-4B R/B 3.5 14:34:16 10° N 14:39:23 41° WNW 14:44:22 10° SW
BREEZE-M DEB (TANK) 4.5 14:37:38 10° WSW 14:41:14 59° NNW 14:52:00 10° NE
Helios 1A Rocket 3.5 14:37:31 10° N 14:41:21 37° WNW 14:45:09 10° SW
AQUARIUS 4.1 14:38:44 10° N 14:43:15 78° WNW 14:47:43 10° SSW
Cosmos 1844 3.7 14:37:49 10° NNW 14:43:19 63° WSW 14:48:47 10° S
Cosmos 1437 4.0 14:41:39 10° NW 14:43:55 19° W 14:46:10 10° SW
ALOS 3.8 14:44:18 10° NNW 14:46:47 14° WNW 14:49:16 10° W
CZ-4 R/B 3.9 14:43:27 10° NE 14:47:06 29° E 14:50:42 10° SSE
Feng Yun 1-1 Rocket 4.4 14:44:02 10° NNE 14:49:57 87° WNW 14:55:41 10° SSW
